{"data":{"norad_id":81052,"intl_designator":"","name":"UNKNOWN","alt_names":[],"object_type":"UNKNOWN","status":"UNKNOWN","operator":null,"country":null,"launch_date":null,"launch_site_code":null,"launch_vehicle":null,"mission":null,"orbit_class":"UNKNOWN","rcs_meters":null,"size_class":null,"mass_kg":null,"dimensions":null,"purposes":[],"wikipedia_slug":null,"has_3d_model":false,"image_url":null,"decayed_at":null,"tle_current":{"epoch":"2026-09-16T18:00:57.197664Z","epoch_age_seconds":342101,"freshness":"STALE","line1":"1 81052U          26259.75066201  .00007825  00000+0  20926-2 0  9999","line2":"2 81052  65.7707  45.2341 0546943 173.2315 187.6552 13.85666525638808","mean_motion":13.85666525,"eccentricity":0.0546943,"inclination_deg":65.7707,"raan_deg":45.2341,"arg_perigee_deg":173.2315,"mean_anomaly_deg":187.6552,"bstar":0.0020926,"rev_number":63880,"period_min":103.92110756951,"perigee_km":543.38548935533,"apogee_km":1344.3281420645,"semimajor_km":7321.9938157099,"source":"CELESTRAK","updated_at":"2026-09-20T09:00:32.382837Z"}}}